Location: Alafon
(8.4500°N, 4.2333°E)
Time: 15:00:51
(UTC+00:00)

Vanguard 1 Rocket - Pass Details

Date: 02 August 2021
Orbit: 650 x 4226 km, 34.3° (Epoch: 23 September)

Event Time Altitude Azimuth Distance (km) Brightness Sun altitude
Rises 05:09:26 0° 222° (SW) 7,502 11.5 -6.8°
Reaches altitude 10° 05:14:12 10° 218° (SW) 6,807 11.3 -5.7°
Maximum altitude 05:39:02 61° 141° (SE) 4,521 11.1 0.1°
Drops below altitude 10° 06:01:09 10° 66° (ENE) 6,250 14.3 5.3°
Sets 06:05:11 0° 63° (ENE) 6,902 14.1 6.3°
